Overview Statistics Trail Chart Weather Telemetry Raw packets
 

This is the latest recevied weather packets stored in our database for station/object EB1BWO-11. If no packets are shown the sender has not sent any weather packets the latest 10 day(s).

<< 15 16 17 18 19 20 21 >>
Time Temp. Humidity Pressure Rain* Wind** Luminosity Snow
1788251849 25.56° C 55% 1024.1 hPa - - - -
1788250949 25° C 57% 1024 hPa - - - -
1788250049 23.33° C 59% 1024 hPa - - - -
1788249148 22.22° C 59% 1024 hPa - - - -
1788248248 21.11° C 61% 1024 hPa - - - -
1788247347 19.44° C 62% 1024.1 hPa - - - -
1788246447 17.78° C 64% 1024.1 hPa - - - -
1788245547 17.22° C 64% 1024.1 hPa - - - -
1788244647 16.67° C 64% 1024 hPa - - - -
1788243747 15.56° C 66% 1024 hPa - - - -
1788242846 15° C 66% 1023.9 hPa - - - -
1788241946 15° C 65% 1023.8 hPa - - - -
1788241046 15° C 65% 1024 hPa - - - -
1788240146 15.56° C 66% 1023.7 hPa - - - -
1788239246 15.56° C 66% 1023.8 hPa - - - -
1788238346 15.56° C 66% 1023.8 hPa - - - -
1788237446 15.56° C 65% 1023.9 hPa - - - -
1788236546 15.56° C 65% 1024.1 hPa - - - -
1788235645 15.56° C 65% 1024.1 hPa - - - -
1788234745 16.11° C 65% 1024.2 hPa - - - -
1788233845 15.56° C 66% 1024.2 hPa - - - -
1788232945 15.56° C 66% 1024.3 hPa - - - -
1788232045 15.56° C 66% 1024.4 hPa - - - -
1788231145 16.11° C 66% 1024.3 hPa - - - -
1788230245 16.11° C 68% 1024.4 hPa - - - -

* Rain since midnight (hover to see other rain measurements)
** Current wind speed in m/s (hover to see current wind gust speed)